User: anonymous   Login
Location: Grasslands National Park East Block
(49.0708°N, 106.5295°W)
Time: 06:25:39
(UTC-06:00)
Language:

SO-50 - Orbit

View from above orbital plane
View from above orbital plane
View from above satellite
View from above satellite

Ground track
Ground track

The orbit data is extracted from the following two-line orbital elements,

1 27607U 02058C   19259.88993763 -.00000027 +00000-0 +17054-4 0  9997
2 27607 064.5545 133.8264 0077014 239.0511 120.3007 14.75571352900215
Epoch (UTC): 16 September 2019 21:21:30
Eccentricity: 0.0077014
inclination: 64.5545°
perigee height: 589 km
apogee height: 697 km
right ascension of ascending node: 133.8264°
argument of perigee: 239.0511°
revolutions per day: 14.75571352
mean anomaly at epoch: 120.3007°
orbit number at epoch: 90021

The dashed part of the orbit path shows where the satellite is in the earth's shadow,  

DLR